[[{"header":{"parameterUnit":"m.s-1","parameterCategory":1,"la1":30.2991,"la2":30.254,"lo1":-89.0895,"lo2":-89.0444,"dy":0.0017,"dx":0.0017,"nx":28,"ny":28,"refTime":"2024-07-26T21:00:00:Z","depth":0,"parameterNumber":2,"parameterNumberName":"U-component_of_WINDS"},"data":[0,0,0,0,0,0,0,0,0,0,0,0,0,0,0,0,0,0,0,0,0,0,0,0,0,0,0,0,0,0,0,0,0,0,0,0,0,0,0,0,0,0,0,0,0,0,0,0,0,0,0,0,0,0,0,0,0,0,-3.6386,-3.6385,0,-3.6335,-3.6334,-3.6333,-3.6242,-3.624,-3.6238,-3.6236,-3.6182,-3.6183,-3.6183,0,0,0,0,0,0,0,0,0,0,0,0,0,-3.6405,-3.6406,-3.6386,-3.6385,-3.6385,-3.6335,-3.6334,-3.6333,-3.6242,-3.624,-3.6238,-3.6236,-3.6182,-3.6183,-3.6183,0,0,0,0,0,0,0,0,0,0,0,0,0,-3.638,-3.6406,-3.6386,-3.6333,-3.6328,-3.6335,-3.6334,-3.6333,-3.6242,-3.624,-3.6237,-3.6235,-3.6182,-3.6183,-3.6183,-3.6237,0,0,-3.6184,-3.6184,0,0,0,0,0,0,0,0,-3.6381,-3.6379,-3.6341,-3.6337,-3.6331,-3.6292,-3.6321,-3.6301,-3.6243,-3.6275,-3.6236,-3.6233,-3.6221,-3.6218,-3.6214,-3.6234,-3.6232,-3.6184,-3.6184,-3.6184,-3.6184,0,0,0,0,0,0,0,-3.6383,-3.6381,-3.6365,-3.6341,-3.6335,-3.6312,-3.6306,-3.6317,-3.6263,-3.6272,-3.6265,-3.626,-3.6217,-3.6214,-3.6212,-3.6231,-3.6184,-3.6184,-3.6184,-3.6184,-3.6295,-3.6298,0,0,0,0,0,0,-3.6393,-3.6383,-3.6367,-3.6364,-3.635,-3.6314,-3.6307,-3.6307,-3.6263,-3.6253,-3.6263,-3.6256,-3.6215,-3.6212,-3.621,-3.627,-3.6184,-3.6184,-3.6184,-3.6293,-3.6296,-3.6299,0,0,0,0,0,0,-3.6394,-3.6392,-3.6369,-3.6372,-3.6367,-3.6316,-3.6318,-3.6307,-3.6303,-3.6256,-3.6246,-3.6269,-3.6212,-3.6209,-3.6231,-3.6267,-3.6184,-3.6185,-3.6289,-3.6294,-3.6298,-3.6393,0,0,0,0,0,0,-3.6395,-3.6393,-3.6413,-3.6373,-3.6367,-3.6392,-3.632,-3.6308,-3.6304,-3.6296,-3.6259,-3.625,-3.621,-3.6231,-3.6232,-3.6266,-3.6185,-3.6286,-3.6291,-3.6296,-3.6386,-3.64,-3.6411,0,0,0,0,0,-3.6396,-3.6441,-3.6414,-3.6413,-3.6391,-3.6394,-3.6391,-3.6344,-3.6308,-3.6327,-3.6297,-3.6251,-3.6264,-3.6234,-3.6234,-3.6269,-3.6283,-3.629,-3.6296,-3.638,-3.6397,-3.6411,0,0,0,0,0,0,-3.6485,-3.6434,-3.6404,-3.6438,-3.6421,-3.6378,-3.6401,-3.6363,-3.6355,-3.6347,-3.629,-3.6282,-3.6312,-3.6293,-3.6261,-3.632,-3.6267,-3.6273,-3.6331,-3.6346,-3.6359,-3.6362,-3.6185,0,0,0,0,0,-3.6509,-3.6515,-3.6471,-3.6505,-3.6498,-3.6452,-3.6451,-3.6418,-3.6397,-3.6389,-3.6361,-3.6343,-3.6343,-3.6344,-3.6341,-3.6384,-3.6375,-3.6408,-3.6421,-3.6431,-3.6437,-3.6459,-3.6474,-3.632,-3.632,-3.6319,0,0,-3.6557,-3.6531,-3.6538,-3.6522,-3.6505,-3.6514,-3.6446,-3.6458,-3.6464,-3.6391,-3.641,-3.6389,-3.6365,-3.6399,-3.6412,-3.6383,-3.6478,-3.6439,-3.6448,-3.6448,-3.6467,-3.6482,-3.6495,-3.6324,-3.6323,-3.6322,0,0,-3.665,-3.6631,-3.6657,-3.6642,-3.6618,-3.6587,-3.6594,-3.6558,-3.6542,-3.6561,-3.6507,-3.6514,-3.6515,-3.65,-3.6493,-3.6586,-3.6543,-3.6587,-3.6651,-3.6674,-3.6686,-3.6697,-3.6729,-3.6742,-3.6593,-3.6593,-3.6593,0,-3.6713,-3.6724,-3.6675,-3.6691,-3.6686,-3.6623,-3.665,-3.6638,-3.6614,-3.6613,-3.6582,-3.6584,-3.6563,-3.6593,-3.6616,-3.6612,-3.6618,-3.6589,-3.6688,-3.6698,-3.6707,-3.6738,-3.6751,-3.6598,-3.6598,-3.6597,-3.6597,0,-3.6803,-3.6812,-3.6836,-3.6816,-3.6814,-3.6836,-3.6791,-3.6796,-3.6763,-3.6736,-3.6757,-3.6732,-3.6723,-3.6728,-3.6696,-3.6754,-3.6737,-3.6699,-3.6643,-3.6728,-3.6756,-3.6768,-3.6606,-3.6604,-3.6603,-3.6601,0,0,-3.6946,-3.6902,-3.6912,-3.6903,-3.6873,-3.6879,-3.6899,-3.6892,-3.6897,-3.6884,-3.6899,-3.6903,-3.6868,-3.6861,-3.6827,-3.6847,-3.6922,-3.6805,-3.6804,-3.6828,-3.6986,-3.7014,-3.7028,-3.6896,-3.6898,-3.6899,-3.6987,0,-3.7032,-3.7062,-3.7021,-3.7061,-3.7069,-3.7011,-3.7029,-3.7013,-3.699,-3.6993,-3.6967,-3.6971,-3.6924,-3.692,-3.6937,-3.691,-3.6953,-3.6903,-3.6909,-3.6909,-3.6915,-3.7043,-3.7072,-3.7156,-3.6998,-3.7,-3.7001,0,-3.7134,-3.7128,-3.7169,-3.7139,-3.7141,-3.7157,-3.7149,-3.7153,-3.7135,-3.7117,-3.7111,-3.7071,-3.7089,-3.7038,-3.7062,-3.7029,-3.703,-3.7017,-3.7019,-3.7016,-3.6959,-3.7043,-3.7182,-3.7195,-3.7018,-3.7017,-3.7015,0,-3.7235,-3.7236,-3.7261,-3.7255,-3.7221,-3.7235,-3.7221,-3.72,-3.72,-3.7193,-3.7192,-3.7188,-3.7185,-3.7183,-3.7144,-3.711,-3.7173,-3.7118,-3.7158,-3.7159,-3.7172,-3.7171,-3.7312,-3.7175,-3.7175,-3.7175,-3.7175,0,-3.7333,-3.736,-3.7306,-3.7321,-3.7351,-3.7305,-3.7335,-3.7316,-3.7299,-3.731,-3.7261,-3.7272,-3.722,-3.7227,-3.7197,-3.7222,-3.7221,-3.7207,-3.7198,-3.721,-3.7212,-3.7208,-3.7201,-3.7178,-3.7177,-3.7177,-3.7176,0,-3.7448,-3.7413,-3.7437,-3.7404,-3.7397,-3.742,-3.7392,-3.7405,-3.738,-3.7395,-3.7396,-3.7356,-3.7361,-3.7323,-3.7321,-3.7301,-3.734,-3.7322,-3.7346,-3.734,-3.7382,-3.7379,-3.7524,-3.7541,-3.7395,-3.7396,-3.7398,0,-3.7513,-3.7533,-3.7503,-3.7508,-3.7497,-3.7504,-3.7504,-3.7461,-3.7463,-3.7446,-3.7462,-3.7463,-3.7462,-3.7473,-3.7444,-3.7443,-3.7423,-3.7475,-3.7422,-3.7435,-3.7423,-3.7422,-3.7424,-3.7485,-3.7487,-3.7488,-3.7489,0,-3.7631,-3.7613,-3.7615,-3.7612,-3.7614,-3.7609,-3.76,-3.7607,-3.756,-3.7565,-3.7571,-3.757,-3.7569,-3.7571,-3.7565,-3.7551,-3.7513,-3.7507,-3.7516,-3.7527,-3.7541,-3.7534,-3.7375,-3.7503,-3.7501,-3.7501,-3.75,-3.7499,-3.7722,-3.7737,-3.772,-3.7724,-3.7714,-3.7709,-3.772,-3.7698,-3.7702,-3.7698,-3.7673,-3.7683,-3.7667,-3.7655,-3.7645,-3.7653,-3.7628,-3.7642,-3.7645,-3.7648,-3.7656,-3.7542,-3.7652,-3.7652,-3.7651,-3.7651,-3.7651,0,-3.7836,-3.7823,-3.7828,-3.7819,-3.7823,-3.7789,-3.7779,-3.7785,-3.7795,-3.7784,-3.7785,-3.7792,-3.7795,-3.7768,-3.7768,-3.7779,-3.7762,-3.7781,-3.7778,-3.7776,-3.7678,-3.767,-3.7795,-3.7795,-3.7795,-3.7795,-3.7795,-3.7795,-3.7896,-3.7921,-3.7903,-3.7923,-3.791,-3.792,-3.7918,-3.7913,-3.7904,-3.7915,-3.7917,-3.79,-3.7883,-3.7882,-3.7884,-3.7876,-3.7877,-3.7902,-3.7888,-3.7797,-3.7783,-3.7769,-3.7761,-3.7903,-3.7903,-3.7985,-3.7986,-3.7987]},{"header":{"parameterUnit":"m.s-1","parameterCategory":1,"la1":30.2991,"la2":30.254,"lo1":-89.0895,"lo2":-89.0444,"dy":0.0017,"dx":0.0017,"nx":28,"ny":28,"refTime":"2024-07-26T21:00:00:Z","depth":0,"parameterNumber":3,"parameterNumberName":"V-component_of_WINDS"},"data":[0,0,0,0,0,0,0,0,0,0,0,0,0,0,0,0,0,0,0,0,0,0,0,0,0,0,0,0,0,0,0,0,0,0,0,0,0,0,0,0,0,0,0,0,0,0,0,0,0,0,0,0,0,0,0,0,0,0,1.2519,1.2517,0,1.2336,1.2334,1.2331,1.2202,1.2201,1.22,1.2199,1.2009,1.2005,1.2001,0,0,0,0,0,0,0,0,0,0,0,0,0,1.2757,1.2753,1.2519,1.2517,1.2514,1.2336,1.2333,1.2331,1.2202,1.2201,1.22,1.2198,1.201,1.2006,1.2001,0,0,0,0,0,0,0,0,0,0,0,0,0,1.2622,1.2752,1.2519,1.2429,1.2419,1.2336,1.2333,1.233,1.2202,1.2201,1.2199,1.2198,1.2012,1.2006,1.2,1.1993,0,0,1.1981,1.1978,0,0,0,0,0,0,0,0,1.263,1.2613,1.2444,1.2435,1.2423,1.229,1.2347,1.2217,1.2203,1.2284,1.2199,1.2197,1.2104,1.209,1.2059,1.1984,1.1976,1.1981,1.1977,1.1974,1.1972,0,0,0,0,0,0,0,1.2639,1.262,1.2446,1.2442,1.2429,1.2397,1.2376,1.2322,1.2205,1.2277,1.2267,1.2248,1.2098,1.2065,1.2053,1.1973,1.1981,1.1975,1.1971,1.1969,1.1885,1.1886,0,0,0,0,0,0,1.2663,1.2629,1.2452,1.2441,1.2525,1.2394,1.2371,1.2334,1.2205,1.2184,1.2249,1.2242,1.2076,1.2061,1.2046,1.203,1.1974,1.1968,1.1965,1.1883,1.1885,1.1886,0,0,0,0,0,0,1.2668,1.2648,1.2459,1.2532,1.2506,1.2392,1.2352,1.2332,1.2299,1.2184,1.2162,1.2237,1.2074,1.2055,1.2007,1.2021,1.1966,1.196,1.1881,1.1884,1.1886,1.1997,0,0,0,0,0,0,1.2676,1.2651,1.2647,1.2533,1.2502,1.2424,1.2353,1.2329,1.2289,1.2278,1.2167,1.2147,1.2072,1.2017,1.2001,1.2012,1.1955,1.188,1.1882,1.1885,1.1992,1.2003,1.2013,0,0,0,0,0,1.2685,1.2685,1.2647,1.2627,1.2495,1.2425,1.2407,1.2321,1.229,1.2285,1.2212,1.2151,1.2023,1.2014,1.1994,1.2003,1.1878,1.1882,1.1885,1.1987,1.2001,1.2012,0,0,0,0,0,0,1.2801,1.2668,1.2625,1.2588,1.252,1.2404,1.2394,1.2338,1.2276,1.2268,1.2164,1.214,1.2104,1.2049,1.2041,1.1991,1.1943,1.1943,1.2028,1.204,1.205,1.2063,1.195,0,0,0,0,0,1.2823,1.2778,1.2664,1.2642,1.261,1.2509,1.2475,1.2415,1.2339,1.2309,1.2232,1.216,1.2104,1.2069,1.201,1.1984,1.1958,1.1981,1.1991,1.2001,1.2001,1.1984,1.1993,1.1897,1.1897,1.1897,0,0,1.2867,1.2789,1.2766,1.2664,1.2603,1.2559,1.2485,1.2441,1.2407,1.2302,1.2253,1.2195,1.2107,1.2071,1.2051,1.2024,1.2022,1.2005,1.2013,1.2008,1.1989,1.1998,1.2006,1.1899,1.1899,1.1899,0,0,1.2924,1.286,1.2836,1.2778,1.2688,1.2621,1.2616,1.2509,1.2466,1.2416,1.2337,1.2296,1.22,1.2142,1.21,1.214,1.2081,1.2124,1.2178,1.2163,1.217,1.2176,1.2191,1.2197,1.2125,1.2125,1.2126,0,1.2989,1.292,1.283,1.2792,1.2749,1.2655,1.263,1.2577,1.2473,1.2446,1.2418,1.2299,1.2233,1.2183,1.2193,1.2162,1.2153,1.2135,1.2177,1.2182,1.2186,1.2199,1.2205,1.2131,1.213,1.213,1.2129,0,1.3005,1.2959,1.295,1.2853,1.281,1.2779,1.2685,1.2652,1.2597,1.2534,1.2485,1.2404,1.2328,1.2312,1.2257,1.2254,1.2241,1.2196,1.2146,1.2203,1.2213,1.2217,1.2139,1.2137,1.2136,1.2134,0,0,1.3127,1.2984,1.2982,1.2938,1.2834,1.2796,1.2762,1.2689,1.2663,1.2596,1.2564,1.2488,1.2447,1.2399,1.2337,1.2325,1.2362,1.2281,1.2278,1.2299,1.2356,1.239,1.2396,1.2324,1.2324,1.2325,1.2363,0,1.3168,1.31,1.302,1.298,1.2937,1.2848,1.2818,1.2751,1.2692,1.2646,1.258,1.2528,1.2478,1.2449,1.2432,1.2361,1.2372,1.2358,1.2293,1.2292,1.2317,1.2401,1.2436,1.2476,1.2366,1.2367,1.2367,0,1.3205,1.3144,1.3101,1.3002,1.2981,1.2955,1.2884,1.2842,1.2765,1.2722,1.2672,1.2607,1.2566,1.2523,1.2466,1.2458,1.2428,1.2389,1.2389,1.2378,1.2332,1.2393,1.2486,1.2493,1.2373,1.2372,1.2372,0,1.3299,1.3206,1.3168,1.3133,1.3018,1.3002,1.2953,1.2875,1.2837,1.2775,1.275,1.2684,1.2647,1.2598,1.2517,1.2493,1.2469,1.2419,1.2433,1.2435,1.243,1.2431,1.2519,1.2412,1.2412,1.2412,1.2412,0,1.3352,1.3329,1.3209,1.3186,1.3158,1.3067,1.3042,1.2985,1.2917,1.2881,1.28,1.2768,1.2664,1.262,1.2556,1.2519,1.2503,1.2468,1.2452,1.2475,1.248,1.2452,1.2447,1.2414,1.2413,1.2413,1.2413,0,1.3451,1.337,1.3323,1.3219,1.3192,1.3177,1.3087,1.3061,1.2999,1.2955,1.294,1.2841,1.2786,1.2701,1.2619,1.2577,1.2551,1.2523,1.2577,1.2567,1.2586,1.2585,1.2658,1.2664,1.2555,1.2556,1.2557,0,1.349,1.347,1.3365,1.3336,1.3291,1.3245,1.3207,1.3118,1.3082,1.2995,1.298,1.2919,1.2865,1.2781,1.2702,1.264,1.261,1.2641,1.26,1.2625,1.2611,1.2613,1.2611,1.265,1.2651,1.2653,1.2654,0,1.3568,1.3529,1.3478,1.3414,1.3372,1.3317,1.3257,1.3238,1.3136,1.31,1.3043,1.3002,1.2921,1.2861,1.2789,1.2738,1.2679,1.2668,1.2667,1.2691,1.2723,1.2706,1.2602,1.2666,1.2664,1.2663,1.2663,1.2662,1.3637,1.3616,1.354,1.3486,1.3433,1.3381,1.3352,1.3288,1.3239,1.3166,1.3117,1.3064,1.299,1.2887,1.284,1.2797,1.2771,1.2771,1.2771,1.2772,1.2781,1.2731,1.2784,1.2783,1.2783,1.2782,1.2782,0,1.371,1.3658,1.361,1.3531,1.349,1.344,1.3373,1.3341,1.3295,1.3232,1.3181,1.3117,1.306,1.2979,1.2915,1.2897,1.2869,1.2883,1.2883,1.2873,1.2807,1.2814,1.2908,1.2908,1.2908,1.2908,1.2907,1.2907,1.3743,1.3706,1.366,1.3596,1.3543,1.3491,1.3457,1.3409,1.3358,1.3291,1.3243,1.3191,1.312,1.3052,1.2998,1.2975,1.2956,1.2979,1.2949,1.2889,1.2877,1.2866,1.2872,1.2976,1.2976,1.3017,1.3017,1.3018]}]]